Tracking 28799 objects as of 18-Apr-2024
HD Live streaming from Space Station
objects crossing your sky now

SUPERBIRD B1

Track SUPERBIRD B1 now!
SUPERBIRD B1 is classified as:


NORAD ID: 21893
Int'l Code: 1992-010A
Perigee: 36,075.4 km
Apogee: 36,199.8 km
Inclination: 14.2 °
Period: 1,453.7 minutes
Semi major axis: 42508 km
RCS: 7.9433 m2 (large)
Launch date: February 26, 1992
Source: Japan (JPN)
Launch site: FRENCH GUIANA (FRGUI)
Your satellite tracking list
Your tracking list is empty




NASA's NSSDC Master Catalog

Two Line Element Set (TLE):
1 21893U 92010A   24108.85009007 -.00000281  00000-0  00000-0 0  9991
2 21893  14.1798  12.0324 0014626 104.2324 167.0949  0.99057639116486
Source of the keplerian elements: AFSPC